星链-1259 (STARLINK-1259 )

导读

STARLINK-1259是美国SpaceX星链(Starlink)低轨卫星互联网项目的卫星,于2020年3月18日发射。作为星链早期组网卫星,它旨在构建全球覆盖的卫星通信网络,为全球提供高速低延迟互联网服务,推动了低轨巨型星座建设进程,服务后续全球通信与互联网覆盖布局。

基本信息
目录编号:
45403
目录名称:
STARLINK-1259
国际标识:
2020-019AV
轨道中心:
EARTH
卫星名称:
星链-1259
卫星全名:
星链-1259 (STARLINK-1259 )
卫星状态:
已陨落 最后检测时间 2025-10-28
发射日期:
2020-03-18 UTC
国别 :
美国 (US)
星等 :
--
该卫星已列入 空间交会检测服务 Space Conjunction Data Service (SCDS) ,当前飞行风险评估等级: 无高风险
轨道信息
数据来源 国际轨道数据
星历时间: 2025-10-27T20:41:35+0800
轨道信息已过期321天
半长轴: 6560.535km
偏心率: 0.0002361
轨道倾角: 53.035°
近地点辐角 181.786°
升交点赤经 313.984°
平近点角 178.318°
近地点: 180.851km
远地点: 183.949km
周期: 88.139分钟
每日圈数: 16.337814
详细信息
固有亮度:
5
最大亮度:
2.5
卫星平台:
Starlink V1.0
覆盖范围:
全球
运营商:
太空探索技术公司
运营商所在国:
美国
制造商(研发单位):
太空探索技术公司
制造商所在国:
美国
使用方式:
暂无
卫星简介
星链(Starlink)计划是由太空探索技术公司(SpaceX)提出的一个巨型低轨卫星互联网星座项目,计划在2019年至2024年间在太空搭建由约1.2万颗卫星组成的“星链”网络,其中1584颗将部署在地球上空550千米处的近地轨道,并从2020年开始工作。该卫星仍在工作。
与全量物体交会距离演化趋势
与全量物体交会风险概率演化趋势